Weather History for Findlay, OH

Change the Weather History Date:

Thursday, January 17, 2013

  Actual Average Record
Temperature  
Mean Temperature 30 °F -  
Max Temperature 39 °F 30 °F 62 °F (1952)
Min Temperature 19 °F 17 °F -17 °F (1977)
Degree Days  
Heating Degree Days 35    
Moisture  
Dew Point 24 °F    
Average Humidity 75    
Maximum Humidity 88    
Minimum Humidity 55    
Precipitation  
Precipitation 0.00 in - - ()
Sea Level Pressure  
Sea Level Pressure 30.16 in    
Wind  
Wind Speed 11 mph (West)    
Max Wind Speed 21 mph    
Max Gust Speed 28 mph    
Visibility 9 miles    
Events      
Averages and records for this station are not official NWS values.
T = Trace of Precipitation, MM = Missing Value Source: NWS Daily Summary

Daily Weather History Graph

Daily Weather History Graph

Search for Another Location

Airport:

Trip Planner

Search our weather history database for the weather conditions in past years. The results will help you decide how hot, cold, wet, or windy it might be!

Date:

Astronomy

Jan. 17, 2013 Rise Set
Actual Time 7:56 AM EST 5:33 PM EST
Civil Twilight 7:26 AM EST 6:03 PM EST
Nautical Twilight 6:52 AM EST 6:37 PM EST
Astronomical Twilight 6:19 AM EST 7:10 PM EST
Moon 10:59 AM EST (1/17) No Moon Set
Length of Visible Light 10h 37m
Length of Day
9h 37m
Waxing Crescent, 37% of the Moon is Illuminated
Jan 17
Waxing Crescent
Jan 18
First Quarter
Jan 26
Full
Feb 3
Last Quarter
Feb 10
New

Hourly Weather History & Observations

Time (EST) Temp. Windchill Dew Point Humidity Pressure Visibility Wind Dir Wind Speed Gust Speed Precip Events Conditions
12:09 AM 32.0 °F 22.5 °F 24.8 °F 75% 30.00 in 10.0 mi WSW 12.7 mph - N/A   Overcast
12:48 AM 32.0 °F 21.2 °F 24.8 °F 75% 30.02 in 10.0 mi WSW 16.1 mph 21.9 mph N/A   Overcast
12:53 AM 32.0 °F 21.6 °F 25.0 °F 75% 30.04 in 10.0 mi West 15.0 mph - N/A   Overcast
1:53 AM 32.0 °F 23.0 °F 26.1 °F 79% 30.06 in 10.0 mi WSW 11.5 mph - N/A   Overcast
2:53 AM 32.0 °F 23.6 °F 26.1 °F 79% 30.07 in 10.0 mi West 10.4 mph - N/A   Overcast
3:53 AM 32.0 °F 24.2 °F 27.0 °F 82% 30.09 in 10.0 mi WSW 9.2 mph - N/A   Overcast
4:53 AM 32.0 °F 24.2 °F 27.0 °F 82% 30.09 in 10.0 mi WSW 9.2 mph - N/A   Overcast
5:53 AM 32.0 °F 24.2 °F 27.0 °F 82% 30.10 in 10.0 mi West 9.2 mph - N/A   Overcast
6:53 AM 32.0 °F 24.8 °F 28.0 °F 85% 30.12 in 9.0 mi West 8.1 mph - N/A   Overcast
7:28 AM 30.2 °F 26.7 °F 26.6 °F 86% 30.12 in 8.0 mi WSW 3.5 mph - N/A   Scattered Clouds
7:53 AM 30.0 °F 25.2 °F 26.1 °F 85% 30.15 in 8.0 mi WSW 4.6 mph - N/A   Clear
8:53 AM 30.0 °F 24.1 °F 27.0 °F 88% 30.17 in 6.0 mi WSW 5.8 mph - N/A   Clear
9:42 AM 32.0 °F 26.4 °F 28.4 °F 87% 30.18 in 6.0 mi SW 5.8 mph - N/A   Mostly Cloudy
9:53 AM 32.0 °F 25.6 °F 28.0 °F 85% 30.20 in 6.0 mi SW 6.9 mph - N/A   Mostly Cloudy
10:14 AM 32.0 °F 26.4 °F 28.4 °F 87% 30.19 in 6.0 mi WSW 5.8 mph - N/A   Partly Cloudy
10:53 AM 34.0 °F 26.6 °F 28.9 °F 82% 30.20 in 7.0 mi WSW 9.2 mph - N/A   Partly Cloudy
11:53 AM 36.0 °F 29.6 °F 28.9 °F 76% 30.19 in 8.0 mi West 8.1 mph - N/A   Overcast
12:06 PM 35.6 °F 29.2 °F 28.4 °F 75% 30.17 in 8.0 mi West 8.1 mph - N/A   Mostly Cloudy
12:53 PM 36.0 °F 29.0 °F 27.0 °F 70% 30.16 in 10.0 mi WNW 9.2 mph - N/A   Overcast
1:50 PM 35.6 °F 28.0 °F 26.6 °F 70% 30.13 in 10.0 mi WNW 10.4 mph - N/A   Scattered Clouds
1:53 PM 36.0 °F 29.0 °F 27.0 °F 70% 30.14 in 10.0 mi WNW 9.2 mph - N/A   Partly Cloudy
2:53 PM 36.0 °F 27.5 °F 27.0 °F 70% 30.13 in 10.0 mi WNW 12.7 mph - N/A   Clear
3:53 PM 39.0 °F 32.3 °F 27.0 °F 62% 30.12 in 10.0 mi West 10.4 mph - N/A   Scattered Clouds
4:53 PM 37.0 °F 28.5 °F 24.1 °F 59% 30.15 in 10.0 mi WNW 13.8 mph - N/A   Clear
5:53 PM 33.1 °F 21.2 °F 21.0 °F 61% 30.17 in 10.0 mi NW 20.7 mph 25.3 mph N/A   Clear
6:53 PM 30.9 °F 20.2 °F 19.9 °F 64% 30.23 in 10.0 mi WNW 15.0 mph 24.2 mph N/A   Clear
7:53 PM 28.0 °F 16.1 °F 19.0 °F 69% 30.27 in 10.0 mi NW 16.1 mph 23.0 mph N/A   Partly Cloudy
8:53 PM 25.0 °F 11.3 °F 15.1 °F 66% 30.30 in 10.0 mi NW 18.4 mph 27.6 mph N/A   Clear
9:53 PM 23.0 °F 9.2 °F 9.0 °F 55% 30.33 in 10.0 mi NW 17.3 mph 25.3 mph N/A   Clear
10:53 PM 21.9 °F 11.7 °F 10.9 °F 63% 30.34 in 10.0 mi NW 9.2 mph - N/A   Clear
11:53 PM 19.9 °F 12.1 °F 10.9 °F 68% 30.35 in 10.0 mi WNW 5.8 mph - N/A   Clear